When you browse on this site, cookies collect data to enhance your experience and personalize the content and advertising you see.
Visit our Privacy Policy to learn more. By continuing to use the site, you agree to this use of cookies and data.
  • In Spain
  • List of Countries
  • For 7 days
  • Water Temperature
  • Satellite Maps
  • Weather Map
  • Weather Widgets
  • user-avatar
    Login

    Hourly Weather Calmeca

    Today, 17 February, Sunday

    Time Temperature Precipitation Wind Pressure Humidity
    00:00 +23°C° 0 mm 1 mps 648 mmHg 33%
    01:00 +22°C° 0 mm 1 mps 648 mmHg 35%
    02:00 +21°C° 0 mm 1 mps 648 mmHg 38%
    03:00 +21°C° 0 mm 1 mps 648 mmHg 39%
    04:00 +20°C° 0 mm 1 mps 648 mmHg 41%
    05:00 +20°C° 0 mm 1 mps 648 mmHg 42%
    06:00 +20°C° 0 mm 0 mps 649 mmHg 40%
    07:00 +22°C° 0 mm 0 mps 650 mmHg 37%
    08:00 +23°C° 0 mm 0 mps 651 mmHg 35%
    09:00 +27°C° 0 mm 1 mps 651 mmHg 31%
    10:00 +29°C° 0 mm 1 mps 651 mmHg 27%
    11:00 +31°C° 0 mm 2 mps 651 mmHg 23%
    12:00 +32°C° 0 mm 2 mps 651 mmHg 21%
    13:00 +34°C° 0 mm 3 mps 650 mmHg 20%
    14:00 +35°C° 0 mm 3 mps 649 mmHg 18%
    15:00 +34°C° 0 mm 2 mps 649 mmHg 19%
    16:00 +32°C° 0 mm 2 mps 649 mmHg 21%
    17:00 +31°C° 0 mm 2 mps 649 mmHg 22%
    18:00 +29°C° 0 mm 2 mps 649 mmHg 23%
    19:00 +27°C° 0 mm 1 mps 649 mmHg 25%
    20:00 +25°C° 0 mm 1 mps 649 mmHg 26%
    21:00 +24°C° 0 mm 1 mps 649 mmHg 26%
    22:00 +23°C° 0 mm 1 mps 650 mmHg 26%
    23:00 +23°C° 0 mm 1 mps 650 mmHg 27%

    Tomorrow, 18 February, Monday

    Time Temperature Precipitation Wind Pressure Humidity
    00:00 +22°C° 0 mm 1 mps 649 mmHg 28%
    01:00 +22°C° 0 mm 1 mps 649 mmHg 29%
    02:00 +21°C° 0 mm 1 mps 649 mmHg 31%
    03:00 +20°C° 0 mm 1 mps 648 mmHg 31%
    04:00 +20°C° 0 mm 1 mps 648 mmHg 31%
    05:00 +20°C° 0 mm 1 mps 648 mmHg 31%
    06:00 +22°C° 0 mm 1 mps 649 mmHg 28%
    07:00 +22°C° 0 mm 0 mps 650 mmHg 25%
    08:00 +24°C° 0 mm 0 mps 651 mmHg 22%
    09:00 +28°C° 0 mm 1 mps 652 mmHg 20%
    10:00 +30°C° 0 mm 1 mps 652 mmHg 19%
    11:00 +32°C° 0 mm 2 mps 652 mmHg 17%
    12:00 +32°C° 0 mm 2 mps 651 mmHg 18%
    13:00 +34°C° 0 mm 2 mps 651 mmHg 18%
    14:00 +34°C° 0 mm 3 mps 650 mmHg 18%
    15:00 +33°C° 0 mm 3 mps 649 mmHg 19%
    16:00 +31°C° 0 mm 2 mps 649 mmHg 19%
    17:00 +30°C° 0 mm 2 mps 649 mmHg 20%
    18:00 +28°C° 0 mm 2 mps 649 mmHg 20%
    19:00 +26°C° 0 mm 2 mps 649 mmHg 19%
    20:00 +24°C° 0 mm 2 mps 650 mmHg 19%
    21:00 +23°C° 0 mm 2 mps 650 mmHg 20%
    22:00 +23°C° 0 mm 1 mps 650 mmHg 21%
    23:00 +22°C° 0 mm 1 mps 650 mmHg 22%

    Day after tomorrow, 19 February, Tuesday

    Time Temperature Precipitation Wind Pressure Humidity
    00:00 +22°C° 0 mm 1 mps 649 mmHg 24%
    01:00 +21°C° 0 mm 1 mps 649 mmHg 26%
    02:00 +20°C° 0 mm 1 mps 648 mmHg 28%
    03:00 +20°C° 0 mm 1 mps 648 mmHg 29%
    04:00 +19°C° 0 mm 1 mps 648 mmHg 30%
    05:00 +19°C° 0 mm 1 mps 648 mmHg 31%
    06:00 +21°C° 0 mm 1 mps 649 mmHg 29%
    07:00 +21°C° 0 mm 0 mps 650 mmHg 26%
    08:00 +23°C° 0 mm 0 mps 651 mmHg 24%
    09:00 +27°C° 0 mm 1 mps 651 mmHg 22%
    10:00 +29°C° 0 mm 1 mps 651 mmHg 19%
    11:00 +31°C° 0 mm 2 mps 651 mmHg 17%
    12:00 +31°C° 0 mm 2 mps 650 mmHg 16%
    13:00 +31°C° 0 mm 2 mps 650 mmHg 15%
    14:00 +33°C° 0 mm 3 mps 649 mmHg 14%
    15:00 +31°C° 0 mm 3 mps 648 mmHg 15%
    16:00 +29°C° 0 mm 3 mps 648 mmHg 17%
    17:00 +28°C° 0 mm 3 mps 648 mmHg 18%
    18:00 +26°C° 0 mm 2 mps 648 mmHg 21%
    19:00 +24°C° 0 mm 2 mps 648 mmHg 24%
    20:00 +21°C° 0 mm 2 mps 648 mmHg 27%
    21:00 +21°C° 0 mm 2 mps 648 mmHg 29%
    22:00 +21°C° 0 mm 1 mps 648 mmHg 32%
    23:00 +20°C° 0 mm 1 mps 648 mmHg 34%

    20 February, Wednesday

    Time Temperature Precipitation Wind Pressure Humidity
    00:00 +20°C° 0 mm 1 mps 648 mmHg 36%
    01:00 +19°C° 0 mm 1 mps 647 mmHg 37%
    02:00 +19°C° 0 mm 1 mps 647 mmHg 38%
    03:00 +19°C° 0 mm 1 mps 647 mmHg 39%
    04:00 +18°C° 0 mm 1 mps 647 mmHg 41%
    05:00 +18°C° 0 mm 1 mps 647 mmHg 42%
    06:00 +20°C° 0 mm 1 mps 647 mmHg 38%
    07:00 +20°C° 0 mm 0 mps 648 mmHg 34%
    08:00 +22°C° 0 mm 0 mps 649 mmHg 29%
    09:00 +26°C° 0 mm 1 mps 649 mmHg 26%
    10:00 +28°C° 0 mm 1 mps 649 mmHg 23%
    11:00 +30°C° 0 mm 2 mps 650 mmHg 20%
    12:00 +30°C° 0 mm 2 mps 649 mmHg 18%
    13:00 +30°C° 0 mm 3 mps 648 mmHg 16%
    14:00 +31°C° 0 mm 3 mps 647 mmHg 14%
    15:00 +30°C° 0 mm 3 mps 647 mmHg 15%
    16:00 +29°C° 0 mm 3 mps 647 mmHg 16%
    17:00 +28°C° 0 mm 2 mps 647 mmHg 18%
    18:00 +26°C° 0 mm 2 mps 647 mmHg 20%
    19:00 +24°C° 0 mm 2 mps 647 mmHg 22%
    20:00 +21°C° 0 mm 2 mps 647 mmHg 24%
    21:00 +20°C° 0 mm 2 mps 647 mmHg 24%
    22:00 +20°C° 0 mm 1 mps 647 mmHg 24%
    23:00 +20°C° 0 mm 1 mps 647 mmHg 24%

    21 February, Thursday

    Time Temperature Precipitation Wind Pressure Humidity
    00:00 +19°C° 0 mm 1 mps 647 mmHg 25%
    01:00 +19°C° 0 mm 1 mps 647 mmHg 25%
    02:00 +18°C° 0 mm 1 mps 646 mmHg 26%
    03:00 +18°C° 0 mm 1 mps 646 mmHg 27%
    04:00 +18°C° 0 mm 1 mps 647 mmHg 27%
    05:00 +16°C° 0 mm 1 mps 647 mmHg 28%
    06:00 +19°C° 0 mm 1 mps 647 mmHg 25%
    07:00 +19°C° 0 mm 0 mps 648 mmHg 23%
    08:00 +22°C° 0 mm 0 mps 649 mmHg 20%
    09:00 +26°C° 0 mm 1 mps 650 mmHg 18%
    10:00 +28°C° 0 mm 2 mps 650 mmHg 17%
    11:00 +30°C° 0 mm 2 mps 650 mmHg 15%
    12:00 +30°C° 0 mm 3 mps 649 mmHg 14%
    13:00 +31°C° 0 mm 3 mps 649 mmHg 14%
    14:00 +33°C° 0 mm 3 mps 648 mmHg 13%
    15:00 +31°C° 0 mm 3 mps 648 mmHg 14%
    16:00 +30°C° 0 mm 2 mps 648 mmHg 16%
    17:00 +29°C° 0 mm 2 mps 648 mmHg 17%
    18:00 +27°C° 0 mm 2 mps 648 mmHg 19%
    19:00 +25°C° 0 mm 2 mps 648 mmHg 21%
    20:00 +21°C° 0 mm 2 mps 648 mmHg 23%
    21:00 +21°C° 0 mm 2 mps 648 mmHg 23%
    22:00 +21°C° 0 mm 1 mps 648 mmHg 22%
    23:00 +20°C° 0 mm 1 mps 648 mmHg 22%

    22 February, Friday

    Time Temperature Precipitation Wind Pressure Humidity
    00:00 +20°C° 0 mm 1 mps 648 mmHg 22%
    01:00 +19°C° 0 mm 1 mps 647 mmHg 22%
    02:00 +19°C° 0 mm 1 mps 647 mmHg 22%
    03:00 +19°C° 0 mm 1 mps 647 mmHg 22%
    04:00 +18°C° 0 mm 1 mps 647 mmHg 23%
    05:00 +18°C° 0 mm 1 mps 647 mmHg 24%
    06:00 +20°C° 0 mm 1 mps 648 mmHg 22%
    07:00 +20°C° 0 mm 0 mps 649 mmHg 20%
    08:00 +23°C° 0 mm 0 mps 650 mmHg 18%
    09:00 +27°C° 0 mm 1 mps 651 mmHg 17%
    10:00 +29°C° 0 mm 1 mps 651 mmHg 16%
    11:00 +31°C° 0 mm 2 mps 651 mmHg 15%
    12:00 +31°C° 0 mm 2 mps 650 mmHg 14%
    13:00 +32°C° 0 mm 2 mps 650 mmHg 14%
    14:00 +34°C° 0 mm 3 mps 649 mmHg 13%
    15:00 +32°C° 0 mm 2 mps 649 mmHg 14%
    16:00 +31°C° 0 mm 2 mps 649 mmHg 16%
    17:00 +30°C° 0 mm 2 mps 649 mmHg 17%
    18:00 +28°C° 0 mm 2 mps 649 mmHg 19%
    19:00 +26°C° 0 mm 2 mps 649 mmHg 21%
    20:00 +23°C° 0 mm 1 mps 649 mmHg 23%
    21:00 +23°C° 0 mm 1 mps 649 mmHg 25%
    22:00 +22°C° 0 mm 1 mps 649 mmHg 26%
    23:00 +21°C° 0 mm 1 mps 649 mmHg 27%
    Show more